Estación Meteorológica Peña el Pijo (Robertgarden) [ 07/12/20 04:34:35 CEST ]

Fecha Hora Presion(HPa) Temp (°C) Humedad % Rocio (°C) Viento ( m/s) Direccion Lluvia 1Hora(mm) Lluvia 24H(mm) LLuvia Total(mm)
2020-Jan-18 01:09:30 1019.500 - - - - N     39.88
2020-Jan-18 02:09:23 1018.800 - - - - N     39.88
2020-Jan-18 03:09:08 1018.500 - - - - N     39.88
2020-Jan-18 04:11:40 1017.500 - - - - N     39.88
2020-Jan-18 05:08:49 1017.300 - - - - N     39.88
2020-Jan-18 06:09:05 1016.800 - - - - N     39.88
2020-Jan-18 07:09:12 1017.500 - - - - N     39.88
2020-Jan-18 08:09:24 1018.300 - - - - N     39.88
2020-Jan-18 09:09:19 1018.500 - - - - N     39.88
2020-Jan-18 10:09:20 1019.000 - - - - N     39.88
2020-Jan-18 11:09:17 1018.600 - - - - N     39.88
2020-Jan-18 12:09:03 1017.800 - - - - N     39.88
2020-Jan-18 13:09:14 1016.100 - - - - N     39.88
2020-Jan-18 14:09:11 1014.800 - - - - N     39.88
2020-Jan-18 15:09:27 1014.100 - - - - N     39.88
2020-Jan-18 16:08:50 1013.600 - - - - N     39.88
2020-Jan-18 17:09:12 1012.900 - - - - N     39.88
2020-Jan-18 18:09:28 1011.600 - - - - N     39.88
2020-Jan-18 19:09:21 1011.400 - - - - N     39.88
2020-Jan-18 20:09:41 1010.600 - - - - N     39.88
2020-Jan-18 21:09:17 1009.700 - - - - N     39.88
2020-Jan-18 22:09:28 1009.100 - - - - N     39.88
2020-Jan-18 23:09:03 1008.400 - - - - N     39.88

Temperatura Máxima:    Temperatura Mínima:
Presión Máxima:1019.500 Hpa    Presión Mínima:1008.400 Hpa


Volver